Location: Unspecified
(0.0000°N, 0.0000°E)
Time: 06:41:56
(UTC+00:00)

Vanguard 2 Rocket - Pass Details

Date: 15 December 2017
Orbit: 553 x 3328 km, 32.9° (Epoch: 22 June)

Event Time Altitude Azimuth Distance (km) Brightness Sun altitude
Exits shadow 00:47:54 19° 79° (ENE) 4,761 10.5 -63.4°
Drops below altitude 10° 00:51:33 10° 89° (E) 5,257 10.8 -63.0°
Sets 00:55:31 0° 97° (E) 5,926 11.3 -62.5°
